Weather History for KCEY - February, 2014

Change the Weather History Date:

Wednesday, February 19, 2014

  Actual Average (KPAH) Record (KPAH)
Temperature  
Mean Temperature 54 °F 40 °F  
Max Temperature 59 °F 50 °F 71 °F (1994)
Min Temperature 48 °F 31 °F 1 °F (1978)
Degree Days  
Heating Degree Days 12 25  
Month to date heating degree days 515  
Since 1 July heating degree days 3088  
Cooling Degree Days 0 0  
Month to date cooling degree days 0  
Year to date cooling degree days 0  
Growing Degree Days 4 (Base 50)    
Moisture  
Dew Point 40 °F    
Average Humidity 61    
Maximum Humidity 100    
Minimum Humidity 31    
Precipitation  
Precipitation 0.00 in 0.14 in 0.88 in (2002)
Month to date precipitation 2.66  
Year to date precipitation 6.34  
Snow  
Snow 0.00 in 0.20 in 1.90 in (2006)
Month to date snowfall 2.4  
Since 1 July snowfall 7.7  
Snow Depth -    
Sea Level Pressure  
Sea Level Pressure 29.96 in    
Wind  
Wind Speed 10 mph (ENE)    
Max Wind Speed 17 mph    
Max Gust Speed 24 mph    
Visibility 10 miles    
Events      
T = Trace of Precipitation, MM = Missing Value Source: NWS Daily Summary

Daily Weather History Graph

Daily Weather History Graph

Search for Another Location

Airport or City:

Trip Planner

Search our weather history database for the weather conditions in past years. The results will help you decide how hot, cold, wet, or windy it might be!

Date:

Astronomy

Feb. 19, 2014 Rise Set
Actual Time 6:36 AM CST 5:38 PM CST
Civil Twilight 6:10 AM CST 6:04 PM CST
Nautical Twilight 5:40 AM CST 6:34 PM CST
Astronomical Twilight 5:10 AM CST 7:04 PM CST
Moon 10:22 PM CST (2/19) 8:50 AM CST (2/19)
Length of Visible Light 11h 53m
Length of Day
11h 01m
Waning Gibbous, 79% of the Moon is Illuminated
Feb 19
Waning Gibbous
Feb 22
Last Quarter
Mar 1
New
Mar 8
First Quarter
Mar 16
Full

Hourly Weather History & Observations

Time (CST) Temp. Dew Point Humidity Pressure Visibility Wind Dir Wind Speed Gust Speed Precip Events Conditions
12:15 AM 59.0 °F 57.2 °F 94% 29.84 in 10.0 mi SW 13.8 mph 20.7 mph N/A   Mostly Cloudy
12:35 AM 59.0 °F 57.2 °F 94% 29.84 in 9.0 mi WSW 15.0 mph 20.7 mph N/A   Overcast
12:55 AM 59.0 °F 57.2 °F 94% 29.85 in 9.0 mi West 12.7 mph - N/A   Overcast
1:15 AM 59.0 °F 57.2 °F 94% 29.85 in 10.0 mi WSW 16.1 mph 23.0 mph N/A   Mostly Cloudy
1:35 AM 59.0 °F 57.2 °F 94% 29.85 in 10.0 mi WSW 17.3 mph 24.2 mph N/A   Overcast
1:55 AM 59.0 °F 57.2 °F 94% 29.85 in 9.0 mi WSW 17.3 mph 24.2 mph N/A   Overcast
2:15 AM 59.0 °F 57.2 °F 94% 29.85 in 8.0 mi West 13.8 mph 21.9 mph N/A   Mostly Cloudy
2:35 AM 57.2 °F 57.2 °F 100% 29.85 in 7.0 mi WSW 15.0 mph 21.9 mph N/A   Partly Cloudy
2:55 AM 57.2 °F 55.4 °F 94% 29.86 in 7.0 mi West 15.0 mph - N/A   Clear
3:15 AM 57.2 °F 55.4 °F 94% 29.86 in 6.0 mi WSW 12.7 mph - N/A   Clear
3:35 AM 55.4 °F 55.4 °F 100% 29.87 in 5.0 mi WSW 12.7 mph - N/A   Clear
4:15 AM 55.4 °F 55.4 °F 100% 29.88 in 5.0 mi West 12.7 mph - N/A   Clear
4:35 AM 55.4 °F 55.4 °F 100% 29.89 in 5.0 mi West 12.7 mph - N/A   Clear
4:55 AM 53.6 °F 53.6 °F 100% 29.91 in 5.0 mi West 11.5 mph - N/A   Clear
5:15 AM 53.6 °F 51.8 °F 94% 29.92 in 8.0 mi WNW 12.7 mph 18.4 mph N/A   Clear
5:35 AM 51.8 °F 48.2 °F 88% 29.93 in 10.0 mi NW 12.7 mph - N/A   Clear
5:55 AM 50.0 °F 44.6 °F 82% 29.95 in 10.0 mi NW 12.7 mph 17.3 mph N/A   Clear
6:15 AM 48.2 °F 44.6 °F 87% 29.96 in 10.0 mi NW 10.4 mph - N/A   Clear
6:35 AM 48.2 °F 41.0 °F 76% 29.97 in 10.0 mi NNW 9.2 mph - N/A   Clear
6:55 AM 48.2 °F 39.2 °F 71% 29.99 in 10.0 mi NNW 13.8 mph - N/A   Clear
7:15 AM 48.2 °F 37.4 °F 66% 30.00 in 10.0 mi North 11.5 mph - N/A   Clear
7:35 AM 48.2 °F 37.4 °F 66% 30.01 in 10.0 mi North 8.1 mph - N/A   Clear
7:55 AM 48.2 °F 37.4 °F 66% 30.02 in 10.0 mi North 6.9 mph - N/A   Clear
8:15 AM 48.2 °F 35.6 °F 62% 30.03 in 10.0 mi NNW 4.6 mph - N/A   Clear
8:35 AM 50.0 °F 35.6 °F 58% 30.04 in 10.0 mi North 5.8 mph - N/A   Clear
8:55 AM 50.0 °F 35.6 °F 58% 30.04 in 10.0 mi North 4.6 mph - N/A   Clear
9:15 AM 50.0 °F 35.6 °F 58% 30.05 in 10.0 mi North 4.6 mph - N/A   Clear
9:35 AM 51.8 °F 33.8 °F 50% 30.05 in 10.0 mi NNE 8.1 mph - N/A   Clear
9:55 AM 51.8 °F 33.8 °F 50% 30.06 in 10.0 mi NNE 8.1 mph - N/A   Clear
10:15 AM 53.6 °F 33.8 °F 47% 30.06 in 10.0 mi North 6.9 mph - N/A   Clear
10:35 AM 53.6 °F 32.0 °F 44% 30.06 in 10.0 mi North 8.1 mph - N/A   Clear
10:55 AM 53.6 °F 33.8 °F 47% 30.05 in 10.0 mi Calm Calm - N/A   Clear
11:15 AM 53.6 °F 33.8 °F 47% 30.05 in 10.0 mi Calm Calm - N/A   Clear
11:35 AM 53.6 °F 33.8 °F 47% 30.05 in 10.0 mi Calm Calm - N/A   Clear
11:55 AM 55.4 °F 32.0 °F 41% 30.04 in 10.0 mi Calm Calm - N/A   Clear
12:15 PM 57.2 °F 32.0 °F 38% 30.04 in 10.0 mi NW 4.6 mph - N/A   Clear
12:35 PM 55.4 °F 32.0 °F 41% 30.03 in 10.0 mi SSE 3.5 mph - N/A   Clear
12:55 PM 57.2 °F 32.0 °F 38% 30.03 in 10.0 mi Calm Calm - N/A   Clear
1:15 PM 57.2 °F 32.0 °F 38% 30.03 in 10.0 mi NW 3.5 mph - N/A   Clear
1:35 PM 57.2 °F 32.0 °F 38% 30.02 in 10.0 mi Calm Calm - N/A   Clear
1:55 PM 57.2 °F 32.0 °F 38% 30.01 in 10.0 mi North 4.6 mph - N/A   Clear
2:15 PM 59.0 °F 32.0 °F 36% 30.00 in 10.0 mi Calm Calm - N/A   Clear
2:35 PM 59.0 °F 33.8 °F 39% 30.00 in 10.0 mi NE 5.8 mph - N/A   Clear
2:55 PM 59.0 °F 32.0 °F 36% 30.00 in 10.0 mi East 4.6 mph - N/A   Clear
3:15 PM 59.0 °F 32.0 °F 36% 30.00 in 10.0 mi SE 5.8 mph - N/A   Clear
3:35 PM 59.0 °F 32.0 °F 36% 30.00 in 10.0 mi East 5.8 mph - N/A   Clear
3:55 PM 59.0 °F 28.4 °F 31% 29.99 in 10.0 mi ESE 4.6 mph - N/A   Clear
4:15 PM 59.0 °F 32.0 °F 36% 29.98 in 10.0 mi East 8.1 mph - N/A   Clear
4:35 PM 57.2 °F 32.0 °F 38% 29.98 in 10.0 mi East 6.9 mph - N/A   Clear
4:55 PM 57.2 °F 32.0 °F 38% 29.97 in 10.0 mi ESE 3.5 mph - N/A   Clear
5:15 PM 57.2 °F 30.2 °F 36% 29.98 in 10.0 mi East 3.5 mph - N/A   Clear
5:35 PM 55.4 °F 30.2 °F 38% 29.98 in 10.0 mi East 5.8 mph - N/A   Clear
5:55 PM 53.6 °F 32.0 °F 44% 29.99 in 10.0 mi East 5.8 mph - N/A   Scattered Clouds
6:15 PM 53.6 °F 33.8 °F 47% 29.98 in 10.0 mi East 6.9 mph - N/A   Mostly Cloudy
6:35 PM 51.8 °F 35.6 °F 54% 29.97 in 10.0 mi East 8.1 mph - N/A   Mostly Cloudy
6:55 PM 53.6 °F 35.6 °F 51% 29.97 in 10.0 mi East 6.9 mph - N/A   Overcast
7:15 PM 53.6 °F 37.4 °F 54% 29.96 in 10.0 mi East 9.2 mph - N/A   Overcast
7:35 PM 51.8 °F 37.4 °F 58% 29.96 in 10.0 mi ESE 9.2 mph - N/A   Overcast
7:55 PM 51.8 °F 35.6 °F 54% 29.95 in 10.0 mi ESE 9.2 mph - N/A   Overcast
8:15 PM 51.8 °F 35.6 °F 54% 29.94 in 10.0 mi ESE 9.2 mph - N/A   Overcast
8:35 PM 51.8 °F 35.6 °F 54% 29.94 in 10.0 mi ESE 9.2 mph - N/A   Mostly Cloudy
8:55 PM 50.0 °F 35.6 °F 58% 29.93 in 10.0 mi ESE 9.2 mph - N/A   Mostly Cloudy
9:15 PM 50.0 °F 35.6 °F 58% 29.93 in 10.0 mi ESE 9.2 mph - N/A   Mostly Cloudy
9:35 PM 50.0 °F 37.4 °F 62% 29.93 in 10.0 mi ESE 8.1 mph - N/A   Mostly Cloudy
9:55 PM 50.0 °F 37.4 °F 62% 29.92 in 10.0 mi ESE 6.9 mph - N/A   Overcast
10:35 PM 50.0 °F 37.4 °F 62% 29.90 in 10.0 mi SE 8.1 mph - N/A   Mostly Cloudy
10:55 PM 51.8 °F 35.6 °F 54% 29.89 in 10.0 mi SE 9.2 mph - N/A   Mostly Cloudy
11:15 PM 50.0 °F 37.4 °F 62% 29.88 in 10.0 mi SSE 5.8 mph - N/A   Overcast
11:35 PM 51.8 °F 35.6 °F 54% 29.87 in 10.0 mi SE 8.1 mph - N/A   Overcast
11:55 PM 51.8 °F 37.4 °F 58% 29.86 in 10.0 mi SE 8.1 mph - N/A   Overcast